N1GCN Weather Reports


Display with metric or nautical units.
time (UTC)temp
F
wind
direction
speed
MPH
gust
MPH
rain 1hr
in
rain 24hr
in
rain mn
in
humidity
%
barometer
mb
20260510200001 67 196 1.0 7.0 0.00 0.72 0.00 79 1011.2
20260510190002 67 109 3.0 10.0 0.00 0.98 0.00 76 1011.3
20260510180002 66 75 3.0 10.0 0.00 1.07 0.00 80 1012.0
20260510173010 66 75 3.0 9.0 0.00 1.07 0.00 79 1011.5
20260510170002 66 129 3.0 10.0 0.00 1.07 0.00 80 1011.9
20260510160002 64 102 2.0 10.0 0.00 1.07 0.00 77 1012.2
20260510153010 63 100 3.0 8.0 0.00 1.07 0.00 92 1012.6
20260510150002 58 62 3.0 9.0 0.00 1.07 0.00 99 1012.6
20260510143011 57 82 1.0 7.0 0.00 1.07 0.00 100 1012.4
20260510140002 55 133 0.0 5.0 0.00 1.07 0.00 100 1012.1
20260510133011 55 141 0.0 10.0 0.00 1.07 0.00 100 1012.1
20260510130003 54 154 0.0 3.0 0.00 1.07 0.00 100 1012.3
20260510123011 53 154 0.0 3.0 0.00 1.07 0.00 100 1012.2
20260510120003 52 154 0.0 3.0 0.00 1.07 0.00 100 1011.8
20260510113011 51 146 0.0 6.0 0.00 1.07 0.00 100 1011.5
20260510110003 51 113 0.0 7.0 0.00 1.07 0.00 100 1011.3
20260510100003 50 118 0.0 5.0 0.00 1.07 0.00 100 1010.9
20260510093011 51 114 0.0 2.0 0.00 1.07 0.00 100 1011.3
20260510090003 51 117 0.0 1.0 0.00 1.07 0.00 100 1011.2
20260510083012 51 115 0.0 0.0 0.00 1.08 0.00 100 1011.1
20260510080004 51 115 0.0 0.0 0.00 1.08 0.00 100 1010.3
20260510073012 51 116 1.0 3.0 0.00 1.08 0.00 100 1010.4
20260510070004 52 114 0.0 1.0 0.00 1.08 0.00 100 1010.2
20260510063013 52 112 0.0 1.0 0.00 1.08 0.00 100 1009.5
20260510060004 52 113 0.0 3.0 0.00 1.08 0.00 100 1008.8
20260510053013 52 113 0.0 3.0 0.00 1.08 0.00 100 1008.2
20260510050004 52 115 0.0 0.0 0.00 1.08 0.00 100 1007.3
20260510043013 52 115 0.0 1.0 0.00 1.08 0.00 100 1007.4
20260510040004 52 116 0.0 0.0 0.00 1.08 0.00 100 1007.2
20260510033012 52 116 0.0 3.0 0.00 1.08 1.08 100 1007.8
20260510023008 52 109 0.0 0.0 0.00 1.08 1.08 100 1009.9
20260510020000 52 109 0.0 3.0 0.00 1.08 1.08 100 1010.3
20260510013009 52 125 0.0 3.0 0.00 1.08 1.08 100 1010.1
20260510010000 52 128 0.0 5.0 0.00 1.08 1.08 100 1010.2
20260510003009 53 139 1.0 6.0 0.00 1.08 1.08 97 1009.8
20260510000001 53 151 0.0 14.0 0.06 1.08 1.08 97 1009.8
20260509233011 53 72 3.0 12.0 0.13 1.08 1.08 97 1009.7
20260509230001 54 97 1.0 6.0 0.23 1.02 1.02 96 1010.9
20260509220001 54 115 0.0 3.0 0.34 0.79 0.79 96 1011.2
20260509213009 55 115 0.0 2.0 0.18 0.60 0.60 95 1011.1
20260509210001 54 109 0.0 3.0 0.09 0.45 0.45 95 1010.6
20260509203010 54 114 0.0 0.0 0.29 0.42 0.42 93 1011.1